Погода в Тимонове

Россия / Московская область     56°13′31″N   37°01′54″E
темп.,
°C
ветер,
м/с
пор.,
м/с
влажн.,
%
обл.,
%
осадки,
мм/ч
давл.,
гПа
погр.,
м
20 апреля, вт
вт2000:00+5в495498 0.0 1024856
03:00+3в5959100 0.0 1024684
06:00+2в499491 0.4 1023536
09:00+5в4865100 0.4 1022614
12:00+8в6858100 0.0 10201165
15:00+5в5984100 0.8 1021811
18:00+4всв41196100 1.2 1018747
21:00+3в51196100 1.8 1016783
21 апреля, ср
ср2100:00+3в41097100 0.9 1012782
03:00+3всв41097100 3.9 1008716
06:00+1св3998100 3.8 1004408
09:00+1с2599100 6.4 1002267
12:00+2зюз3599100 0.3 1002458
15:00+3зюз4787100 0.3 1004818
18:00+3юз4890100 0.1 1006949
21:00+3юз4993100 0.1 1008640
22 апреля, чт
чт2200:00+3юз4994100 0.1 1010531
03:00+3ююз3995100 0.1 1011306
06:00+3ю3895100 0.0 1012215
09:00+6ююз478397 0.0 1013464
12:00+10ююз5667100 0.3 10141241
15:00+11ююз465629 0.8 10141636
18:00+10ююз4870100 0.0 1014710
21:00+8ююв398393 0.0 1015279
23 апреля, пт
пт2300:00+6ююв4119286 0.0 1014318
03:00+6ююв4119519 0.0 1013313
06:00+6ююв4129519 0.0 1013318
09:00+11ю51275100 0.0 1013578
12:00+15ю6126089 0.1 10121624
15:00+14ююз51068100 2.4 10111361
18:00+12ююз7157399 1.7 10111452
21:00+7зсз3594100 2.3 1012266
24 апреля, сб
сб2400:00+6зюз2395100 1.3 1011252
03:00+6сз2396100 3.0 1010271
06:00+2зсз4998100 7.6 1010424
09:00+3зсз2697100 10.6 1010407
12:00+6з1376100 0.3 1011849
15:00+7зюз2566100 0.9 10101112
18:00+7з3669100 0.3 1010349
21:00+3юз388094 0.4 1010150